Ft Lauderdale, FL

12:52 PM EDT on March 28, 2017 (GMT -0400)
Fort Lauderdale-Hollywood International

Weather History for KFLL - February, 2013

Change the Weather History Date:

Friday, February 22, 2013

  Actual Average Record
Temperature  
Mean Temperature 78 °F 71 °F  
Max Temperature 82 °F 78 °F 87 °F (2011)
Min Temperature 73 °F 65 °F 40 °F (1973)
Degree Days  
Heating Degree Days 0 1  
Month to date heating degree days 19 22  
Since 1 July heating degree days 43 102  
Cooling Degree Days 13 7  
Month to date cooling degree days 140 145  
Year to date cooling degree days 395 315  
Growing Degree Days 27 (Base 50)    
Moisture  
Dew Point 70 °F    
Average Humidity 78    
Maximum Humidity 87    
Minimum Humidity 69    
Precipitation  
Precipitation 0.00 in 0.09 in 1.40 in (2017)
Month to date precipitation 1.91 2.39  
Year to date precipitation 2.89 6.02  
Snow  
Snow 0.00 in - - ()
Month to date snowfall 0.0  
Since 1 July snowfall 0.0  
Snow Depth 0.00 in    
Sea Level Pressure  
Sea Level Pressure 30.06 in    
Wind  
Wind Speed 13 mph (SE)    
Max Wind Speed 21 mph    
Max Gust Speed 26 mph    
Visibility 10 miles    
Events      
T = Trace of Precipitation, MM = Missing Value Source: NWS Daily Summary

Daily Weather History Graph

Daily Weather History Graph

Search for Another Location

Airport or City:

Trip Planner

Search our weather history database for the weather conditions in past years. The results will help you decide how hot, cold, wet, or windy it might be!

Date:

Astronomy

Feb. 22, 2013 Rise Set
Actual Time 6:50 AM EST 6:18 PM EST
Civil Twilight 6:26 AM EST 6:41 PM EST
Nautical Twilight 5:59 AM EST 7:08 PM EST
Astronomical Twilight 5:33 AM EST 7:35 PM EST
Moon 3:38 PM EST (2/22) 4:22 AM EST (2/22)
Length of Visible Light 12h 14m
Length of Day
11h 28m
Waxing Gibbous, 90% of the Moon is Illuminated
Feb 22
Waxing Gibbous
Feb 25
Full
Mar 4
Last Quarter
Mar 11
New
Mar 19
First Quarter

Hourly Weather History & Observations

Time (EST) Temp. Heat Index Dew Point Humidity Pressure Visibility Wind Dir Wind Speed Gust Speed Precip Events Conditions
12:53 AM 73.0 °F - 66.9 °F 81% 30.05 in 10.0 mi ESE 11.5 mph - N/A   Scattered Clouds
1:53 AM 73.9 °F - 68.0 °F 82% 30.04 in 10.0 mi ESE 10.4 mph - N/A   Mostly Cloudy
2:27 AM 73.4 °F - 68.0 °F 83% 30.03 in 10.0 mi SE 11.5 mph - N/A   Scattered Clouds
2:53 AM 73.0 °F - 68.0 °F 84% 30.02 in 10.0 mi SE 11.5 mph - N/A   Mostly Cloudy
3:53 AM 73.0 °F - 69.1 °F 87% 30.02 in 10.0 mi SE 12.7 mph - N/A   Scattered Clouds
4:53 AM 73.0 °F - 69.1 °F 87% 30.03 in 10.0 mi SE 10.4 mph - N/A   Scattered Clouds
5:53 AM 73.9 °F - 69.1 °F 85% 30.05 in 10.0 mi SE 10.4 mph - N/A   Mostly Cloudy
6:53 AM 73.9 °F - 69.1 °F 85% 30.07 in 10.0 mi SE 9.2 mph 16.1 mph N/A   Scattered Clouds
7:53 AM 75.0 °F - 70.0 °F 84% 30.09 in 10.0 mi SE 12.7 mph - N/A   Mostly Cloudy
8:53 AM 77.0 °F - 70.0 °F 79% 30.09 in 10.0 mi SE 18.4 mph 23.0 mph N/A   Partly Cloudy
9:53 AM 78.1 °F - 70.0 °F 76% 30.10 in 10.0 mi SE 13.8 mph - N/A   Scattered Clouds
10:53 AM 78.1 °F - 70.0 °F 76% 30.10 in 10.0 mi SE 16.1 mph - N/A   Mostly Cloudy
11:06 AM 78.8 °F - 71.6 °F 78% 30.10 in 10.0 mi ESE 17.3 mph 21.9 mph N/A   Scattered Clouds
11:53 AM 81.0 °F 84.9 °F 71.1 °F 72% 30.09 in 10.0 mi SE 13.8 mph - N/A   Scattered Clouds
12:02 PM 78.8 °F - 69.8 °F 74% 30.09 in 8.0 mi SE 17.3 mph 24.2 mph N/A   Mostly Cloudy
12:49 PM 80.6 °F 83.9 °F 69.8 °F 70% 30.07 in 8.0 mi SSE 13.8 mph 23.0 mph N/A   Scattered Clouds
12:53 PM 80.1 °F 83.2 °F 70.0 °F 71% 30.07 in 9.0 mi SE 17.3 mph 23.0 mph N/A   Scattered Clouds
1:15 PM 80.6 °F 83.9 °F 69.8 °F 70% 30.06 in 10.0 mi SSE 15.0 mph 24.2 mph N/A   Mostly Cloudy
1:53 PM 79.0 °F - 70.0 °F 74% 30.05 in 10.0 mi SE 17.3 mph 24.2 mph N/A   Scattered Clouds
2:49 PM 80.6 °F 83.9 °F 69.8 °F 70% 30.05 in 10.0 mi SE 15.0 mph 20.7 mph N/A   Mostly Cloudy
2:53 PM 80.1 °F 82.9 °F 69.1 °F 69% 30.04 in 10.0 mi SE 12.7 mph 20.7 mph N/A   Mostly Cloudy
3:19 PM 80.6 °F 83.9 °F 69.8 °F 70% 30.04 in 10.0 mi SE 12.7 mph 20.7 mph N/A   Scattered Clouds
3:53 PM 79.0 °F - 69.1 °F 72% 30.04 in 10.0 mi SE 17.3 mph - N/A   Partly Cloudy
4:53 PM 78.1 °F - 69.1 °F 74% 30.04 in 10.0 mi SE 11.5 mph - N/A   Partly Cloudy
5:53 PM 75.9 °F - 70.0 °F 82% 30.05 in 10.0 mi ESE 9.2 mph - N/A   Scattered Clouds
6:43 PM 75.2 °F - 69.8 °F 83% 30.06 in 10.0 mi SE 9.2 mph - N/A   Mostly Cloudy
6:53 PM 75.0 °F - 70.0 °F 84% 30.06 in 10.0 mi SE 10.4 mph - N/A   Mostly Cloudy
7:53 PM 75.0 °F - 70.0 °F 84% 30.06 in 10.0 mi ESE 11.5 mph - N/A   Partly Cloudy
8:53 PM 75.0 °F - 70.0 °F 84% 30.07 in 10.0 mi ESE 11.5 mph - N/A   Partly Cloudy
9:53 PM 75.0 °F - 70.0 °F 84% 30.07 in 10.0 mi SE 13.8 mph - N/A   Partly Cloudy
10:53 PM 73.9 °F - 70.0 °F 87% 30.07 in 10.0 mi ESE 13.8 mph 21.9 mph N/A   Scattered Clouds
11:53 PM 73.0 °F - 68.0 °F 84% 30.06 in 10.0 mi SE 11.5 mph - N/A   Partly Cloudy